• In Austria
  • List of Countries
  • For 7 days
  • Water Temperature
  • Satellite Maps
  • Weather Map
  • News
  • Weather Widgets
  • user-avatar
    Login

    Hourly Weather El Paso

    Today, 20 September, Thursday

    Time Temperature Precipitation Wind Pressure Humidity
    00:00 +27°C° 2 mm 4 mps 659 mmHg 62%
    01:00 +26°C° 2 mm 4 mps 659 mmHg 64%
    02:00 +25°C° 2 mm 3 mps 659 mmHg 66%
    03:00 +25°C° 1.2 mm 3 mps 659 mmHg 67%
    04:00 +25°C° 1.2 mm 3 mps 659 mmHg 67%
    05:00 +25°C° 1.2 mm 3 mps 659 mmHg 68%
    06:00 +25°C° 0.8 mm 4 mps 659 mmHg 68%
    07:00 +23°C° 0.8 mm 4 mps 660 mmHg 69%
    08:00 +23°C° 0.8 mm 5 mps 660 mmHg 69%
    09:00 +23°C° 1 mm 5 mps 660 mmHg 70%
    10:00 +23°C° 1 mm 4 mps 660 mmHg 71%
    11:00 +23°C° 1 mm 4 mps 660 mmHg 71%
    12:00 +23°C° 1.3 mm 4 mps 660 mmHg 72%
    13:00 +24°C° 1.3 mm 3 mps 659 mmHg 74%
    14:00 +22°C° 1.3 mm 3 mps 659 mmHg 75%
    15:00 +24°C° 0.4 mm 3 mps 659 mmHg 74%
    16:00 +24°C° 0.4 mm 3 mps 659 mmHg 72%
    17:00 +24°C° 0.4 mm 3 mps 659 mmHg 71%
    18:00 +24°C° 0 mm 2 mps 660 mmHg 74%
    19:00 +23°C° 0 mm 2 mps 660 mmHg 76%
    20:00 +23°C° 0 mm 1 mps 661 mmHg 79%
    21:00 +23°C° 0 mm 1 mps 661 mmHg 79%
    22:00 +22°C° 0 mm 1 mps 661 mmHg 79%
    23:00 +22°C° 0 mm 1 mps 661 mmHg 80%

    Tomorrow, 21 September, Friday

    Time Temperature Precipitation Wind Pressure Humidity
    00:00 +22°C° 0 mm 1 mps 661 mmHg 78%
    01:00 +22°C° 0 mm 1 mps 661 mmHg 76%
    02:00 +21°C° 0 mm 2 mps 661 mmHg 74%
    03:00 +21°C° 0 mm 2 mps 661 mmHg 74%
    04:00 +21°C° 0 mm 2 mps 661 mmHg 74%
    05:00 +21°C° 0 mm 2 mps 662 mmHg 75%
    06:00 +21°C° 0 mm 2 mps 662 mmHg 70%
    07:00 +23°C° 0 mm 2 mps 663 mmHg 64%
    08:00 +24°C° 0 mm 2 mps 664 mmHg 59%
    09:00 +26°C° 0 mm 4 mps 665 mmHg 51%
    10:00 +28°C° 0 mm 6 mps 665 mmHg 44%
    11:00 +29°C° 0 mm 7 mps 666 mmHg 36%
    12:00 +30°C° 0 mm 7 mps 666 mmHg 34%
    13:00 +32°C° 0 mm 7 mps 665 mmHg 33%
    14:00 +32°C° 0 mm 7 mps 665 mmHg 31%
    15:00 +32°C° 0 mm 7 mps 665 mmHg 32%
    16:00 +32°C° 0 mm 7 mps 665 mmHg 32%
    17:00 +30°C° 0 mm 7 mps 665 mmHg 33%
    18:00 +29°C° 0 mm 8 mps 665 mmHg 37%
    19:00 +28°C° 0 mm 8 mps 666 mmHg 41%
    20:00 +27°C° 0 mm 9 mps 666 mmHg 45%
    21:00 +26°C° 0 mm 9 mps 666 mmHg 49%
    22:00 +24°C° 0 mm 9 mps 666 mmHg 53%
    23:00 +23°C° 0 mm 9 mps 667 mmHg 57%

    Day after tomorrow, 22 September, Saturday

    Time Temperature Precipitation Wind Pressure Humidity
    00:00 +22°C° 0 mm 8 mps 666 mmHg 59%
    01:00 +21°C° 0 mm 8 mps 666 mmHg 61%
    02:00 +21°C° 0 mm 7 mps 666 mmHg 62%
    03:00 +20°C° 0 mm 7 mps 666 mmHg 63%
    04:00 +20°C° 0 mm 6 mps 666 mmHg 63%
    05:00 +19°C° 0 mm 6 mps 666 mmHg 63%
    06:00 +20°C° 0 mm 6 mps 666 mmHg 59%
    07:00 +21°C° 0 mm 6 mps 667 mmHg 55%
    08:00 +21°C° 0 mm 6 mps 667 mmHg 51%
    09:00 +23°C° 0 mm 6 mps 667 mmHg 46%
    10:00 +24°C° 0 mm 6 mps 668 mmHg 41%
    11:00 +27°C° 0 mm 6 mps 668 mmHg 36%
    12:00 +27°C° 0 mm 5 mps 667 mmHg 34%
    13:00 +28°C° 0 mm 5 mps 666 mmHg 32%
    14:00 +29°C° 0 mm 5 mps 666 mmHg 30%
    15:00 +29°C° 0 mm 5 mps 665 mmHg 31%
    16:00 +28°C° 0 mm 5 mps 665 mmHg 32%
    17:00 +28°C° 0 mm 5 mps 665 mmHg 33%
    18:00 +27°C° 0 mm 5 mps 665 mmHg 38%
    19:00 +26°C° 0 mm 5 mps 665 mmHg 43%
    20:00 +25°C° 0 mm 5 mps 666 mmHg 47%
    21:00 +23°C° 0 mm 5 mps 665 mmHg 52%
    22:00 +23°C° 0 mm 4 mps 665 mmHg 56%
    23:00 +22°C° 0 mm 4 mps 665 mmHg 60%

    23 September, Sunday

    Time Temperature Precipitation Wind Pressure Humidity
    00:00 +21°C° 0 mm 4 mps 665 mmHg 62%
    01:00 +21°C° 0 mm 3 mps 665 mmHg 64%
    02:00 +20°C° 0 mm 3 mps 664 mmHg 67%
    03:00 +20°C° 0 mm 3 mps 664 mmHg 69%
    04:00 +20°C° 0 mm 2 mps 664 mmHg 70%
    05:00 +19°C° 0 mm 2 mps 664 mmHg 72%
    06:00 +20°C° 0 mm 3 mps 665 mmHg 69%
    07:00 +20°C° 0 mm 3 mps 665 mmHg 66%
    08:00 +21°C° 0 mm 3 mps 665 mmHg 63%
    09:00 +22°C° 0 mm 3 mps 666 mmHg 57%
    10:00 +25°C° 0 mm 3 mps 666 mmHg 50%
    11:00 +26°C° 0 mm 3 mps 666 mmHg 43%
    12:00 +27°C° 0 mm 3 mps 665 mmHg 40%
    13:00 +28°C° 0 mm 3 mps 665 mmHg 37%
    14:00 +28°C° 0 mm 2 mps 664 mmHg 33%
    15:00 +29°C° 0 mm 2 mps 664 mmHg 33%
    16:00 +29°C° 0 mm 2 mps 663 mmHg 32%
    17:00 +29°C° 0 mm 2 mps 663 mmHg 32%
    18:00 +28°C° 0 mm 2 mps 663 mmHg 35%
    19:00 +27°C° 0 mm 2 mps 663 mmHg 37%
    20:00 +26°C° 0 mm 2 mps 664 mmHg 40%
    21:00 +26°C° 0 mm 2 mps 663 mmHg 43%
    22:00 +25°C° 0 mm 2 mps 663 mmHg 46%
    23:00 +25°C° 0 mm 3 mps 663 mmHg 48%

    24 September, Monday

    Time Temperature Precipitation Wind Pressure Humidity
    00:00 +24°C° 0 mm 2 mps 663 mmHg 52%
    01:00 +23°C° 0 mm 2 mps 663 mmHg 55%
    02:00 +23°C° 0 mm 2 mps 662 mmHg 59%
    03:00 +21°C° 0 mm 2 mps 662 mmHg 61%
    04:00 +21°C° 0 mm 2 mps 662 mmHg 63%
    05:00 +22°C° 0 mm 1 mps 662 mmHg 65%
    06:00 +21°C° 0 mm 2 mps 663 mmHg 61%
    07:00 +23°C° 0 mm 2 mps 663 mmHg 58%
    08:00 +24°C° 0 mm 2 mps 664 mmHg 55%
    09:00 +25°C° 0 mm 2 mps 664 mmHg 49%
    10:00 +27°C° 0 mm 2 mps 664 mmHg 43%
    11:00 +28°C° 0 mm 2 mps 664 mmHg 37%
    12:00 +29°C° 0 mm 2 mps 663 mmHg 34%
    13:00 +30°C° 0 mm 2 mps 663 mmHg 30%
    14:00 +31°C° 0 mm 2 mps 662 mmHg 27%
    15:00 +31°C° 0 mm 2 mps 662 mmHg 26%
    16:00 +31°C° 0 mm 2 mps 662 mmHg 25%
    17:00 +32°C° 0 mm 2 mps 662 mmHg 24%
    18:00 +31°C° 0 mm 2 mps 662 mmHg 27%
    19:00 +29°C° 0 mm 2 mps 662 mmHg 29%
    20:00 +28°C° 0 mm 2 mps 663 mmHg 31%
    21:00 +28°C° 0 mm 2 mps 663 mmHg 32%
    22:00 +27°C° 0 mm 2 mps 662 mmHg 33%
    23:00 +27°C° 0 mm 2 mps 662 mmHg 34%

    25 September, Tuesday

    Time Temperature Precipitation Wind Pressure Humidity
    00:00 +26°C° 0 mm 2 mps 662 mmHg 34%
    01:00 +26°C° 0 mm 2 mps 662 mmHg 35%
    02:00 +25°C° 0 mm 1 mps 662 mmHg 36%
    03:00 +25°C° 0 mm 1 mps 662 mmHg 37%
    04:00 +25°C° 0 mm 1 mps 662 mmHg 38%
    05:00 +24°C° 0 mm 1 mps 662 mmHg 38%
    06:00 +25°C° 0 mm 1 mps 663 mmHg 35%
    07:00 +27°C° 0 mm 1 mps 663 mmHg 32%
    08:00 +28°C° 0 mm 1 mps 664 mmHg 29%
    09:00 +29°C° 0 mm 1 mps 664 mmHg 27%
    10:00 +30°C° 0 mm 2 mps 664 mmHg 25%
    11:00 +32°C° 0 mm 2 mps 665 mmHg 22%
    12:00 +32°C° 0 mm 2 mps 664 mmHg 21%
    13:00 +34°C° 0 mm 2 mps 664 mmHg 20%
    14:00 +35°C° 0 mm 2 mps 664 mmHg 18%
    15:00 +35°C° 0 mm 2 mps 664 mmHg 18%
    16:00 +35°C° 0 mm 2 mps 664 mmHg 18%
    17:00 +34°C° 0 mm 1 mps 663 mmHg 18%
    18:00 +32°C° 0 mm 2 mps 664 mmHg 20%
    19:00 +31°C° 0 mm 2 mps 664 mmHg 23%
    20:00 +30°C° 0 mm 2 mps 664 mmHg 26%
    21:00 +29°C° 0 mm 3 mps 664 mmHg 27%
    22:00 +29°C° 0 mm 4 mps 664 mmHg 28%
    23:00 +28°C° 0 mm 4 mps 664 mmHg 29%
    Show more